TimePDT,TemperatureF,Dew PointF,Humidity,Sea Level PressureIn,VisibilityMPH,Wind Direction,Wind SpeedMPH,Gust SpeedMPH,PrecipitationIn,Events,Conditions,WindDirDegrees,DateUTC
1:53 AM,53.1,45.0,74,30.10,10.0,East,3.5,-,N/A,,Clear,80,2012-03-14 08:53:00
2:53 AM,53.1,45.0,74,30.09,10.0,Calm,Calm,-,N/A,,Clear,0,2012-03-14 09:53:00
3:53 AM,51.1,44.1,77,30.09,10.0,Calm,Calm,-,N/A,,Clear,0,2012-03-14 10:53:00
4:53 AM,51.1,44.1,77,30.09,10.0,Calm,Calm,-,N/A,,Clear,0,2012-03-14 11:53:00
5:46 AM,51.8,44.6,76,30.10,9.0,Calm,Calm,-,N/A,,Mostly Cloudy,0,2012-03-14 12:46:00
5:53 AM,52.0,45.0,77,30.10,9.0,Calm,Calm,-,N/A,,Mostly Cloudy,0,2012-03-14 12:53:00
6:53 AM,54.0,46.9,77,30.11,10.0,Calm,Calm,-,N/A,,Overcast,0,2012-03-14 13:53:00
7:53 AM,55.0,48.0,77,30.13,10.0,Calm,Calm,-,N/A,,Overcast,0,2012-03-14 14:53:00
8:53 AM,57.0,48.0,72,30.14,9.0,Calm,Calm,-,N/A,,Overcast,0,2012-03-14 15:53:00
9:22 AM,57.2,48.2,72,30.14,9.0,Calm,Calm,-,N/A,,Partly Cloudy,0,2012-03-14 16:22:00
9:53 AM,60.1,48.0,64,30.14,8.0,SSE,3.5,-,N/A,,Partly Cloudy,160,2012-03-14 16:53:00
11:53 AM,66.0,48.0,52,30.12,10.0,Variable,4.6,-,N/A,,Clear,0,2012-03-14 18:53:00
12:53 PM,68.0,48.9,50,30.11,10.0,SSW,8.1,-,N/A,,Clear,200,2012-03-14 19:53:00
1:53 PM,68.0,48.9,50,30.09,10.0,Variable,4.6,-,N/A,,Clear,0,2012-03-14 20:53:00
2:53 PM,68.0,48.0,49,30.09,10.0,SSW,9.2,-,N/A,,Clear,200,2012-03-14 21:53:00
3:53 PM,69.1,46.9,45,30.08,10.0,WSW,6.9,-,N/A,,Clear,250,2012-03-14 22:53:00
4:53 PM,68.0,46.9,47,30.09,10.0,WSW,8.1,-,N/A,,Clear,240,2012-03-14 23:53:00
5:53 PM,64.0,48.0,56,30.09,10.0,West,6.9,-,N/A,,Clear,280,2012-03-15 00:53:00
6:53 PM,61.0,48.9,64,30.11,10.0,West,8.1,-,N/A,,Clear,280,2012-03-15 01:53:00
7:53 PM,59.0,48.9,69,30.13,10.0,WNW,6.9,-,N/A,,Clear,290,2012-03-15 02:53:00
8:21 PM,57.2,50.0,77,30.13,10.0,WNW,6.9,-,N/A,,Mostly Cloudy,290,2012-03-15 03:21:00
9:39 PM,59.0,50.0,72,30.16,10.0,Variable,3.5,-,N/A,,Overcast,0,2012-03-15 04:39:00
9:53 PM,59.0,50.0,72,30.16,10.0,West,3.5,-,N/A,,Overcast,280,2012-03-15 04:53:00
10:53 PM,57.9,50.0,75,30.17,10.0,WNW,3.5,-,N/A,,Overcast,300,2012-03-15 05:53:00
11:53 PM,57.9,50.0,75,30.17,8.0,Calm,Calm,-,N/A,,Overcast,0,2012-03-15 06:53:00